This is the latest recevied weather packets stored in our database for station/object DL9GRB-13. If no packets are shown the sender has not sent any weather packets the latest 10 day(s).
| Time | Temp. | Humidity | Pressure | Rain* | Wind** | Luminosity | Snow |
|---|---|---|---|---|---|---|---|
| 1777896247 | 18.89° C | 58% | 1011.5 hPa | 0 mm | - | 778 W/m² | - |
| 1777896067 | 18.33° C | 60% | 1011.5 hPa | 0 mm | - | 777 W/m² | - |
| 1777895887 | 18.33° C | 60% | 1011.5 hPa | 0 mm | - | 775 W/m² | - |
| 1777895707 | 17.78° C | 61% | 1011.3 hPa | 0 mm | - | 818 W/m² | - |
| 1777895527 | 18.33° C | 60% | 1011.5 hPa | 0 mm | - | 854 W/m² | - |
| 1777895347 | 18.33° C | 59% | 1011.6 hPa | 0 mm | - | 847 W/m² | - |
| 1777895167 | 18.33° C | 62% | 1011.5 hPa | 0 mm | - | 903 W/m² | - |
| 1777894987 | 17.78° C | 62% | 1011.6 hPa | 0 mm | - | 875 W/m² | - |
| 1777894807 | 17.22° C | 64% | 1011.5 hPa | 0 mm | - | 680 W/m² | - |
| 1777894627 | 16.67° C | 66% | 1011.5 hPa | 0 mm | - | 505 W/m² | - |
| 1777894447 | 16.67° C | 65% | 1011.5 hPa | 0 mm | - | 934 W/m² | - |
| 1777894267 | 16.67° C | 63% | 1011.6 hPa | 0 mm | - | 215 W/m² | - |
| 1777894087 | 16.67° C | 64% | 1011.6 hPa | 0 mm | - | 941 W/m² | - |
| 1777893907 | 16.67° C | 64% | 1011.4 hPa | 0 mm | - | 348 W/m² | - |
| 1777893727 | 16.67° C | 64% | 1011.5 hPa | 0 mm | - | 625 W/m² | - |
| 1777893547 | 16.67° C | 64% | 1011.5 hPa | 0 mm | - | 287 W/m² | - |
| 1777893367 | 16.67° C | 64% | 1011.5 hPa | 0 mm | - | 266 W/m² | - |
| 1777893187 | 16.67° C | 64% | 1011.6 hPa | 0 mm | - | 232 W/m² | - |
| 1777893007 | 16.67° C | 63% | 1011.5 hPa | 0 mm | - | 309 W/m² | - |
| 1777892827 | 16.67° C | 63% | 1011.5 hPa | 0 mm | - | 268 W/m² | - |
| 1777892647 | 16.67° C | 63% | 1011.6 hPa | 0 mm | - | 202 W/m² | - |
| 1777892467 | 17.22° C | 62% | 1011.6 hPa | 0 mm | - | 277 W/m² | - |
| 1777892287 | 17.22° C | 62% | 1011.6 hPa | 0 mm | - | 1019 W/m² | - |
| 1777892107 | 17.22° C | 62% | 1011.5 hPa | 0 mm | - | 298 W/m² | - |
| 1777891927 | 16.67° C | 65% | 1011.4 hPa | 0 mm | - | 967 W/m² | - |
* Rain latest hour (hover to see other rain measurements)
** Current wind speed in m/s (hover to see current wind gust speed)